[[{"header":{"parameterUnit":"m.s-1","parameterCategory":1,"la1":30.2991,"la2":30.254,"lo1":-89.0895,"lo2":-89.0444,"dy":0.0017,"dx":0.0017,"nx":28,"ny":28,"refTime":"2023-09-28T03:00:00:Z","depth":0,"parameterNumber":2,"parameterNumberName":"U-component_of_WINDS"},"data":[0,0,0,0,0,0,0,0,0,0,0,0,0,0,0,0,0,0,0,0,0,0,0,0,0,0,0,0,0,0,0,0,0,0,0,0,0,0,0,0,0,0,0,0,0,0,0,0,0,0,0,0,0,0,0,0,0,0,-5.5148,-5.5149,0,-5.5246,-5.5247,-5.5248,-5.5113,-5.5108,-5.5103,-5.5099,-5.5201,-5.5208,-5.5215,0,0,0,0,0,0,0,0,0,0,0,0,0,-5.4848,-5.4854,-5.5148,-5.515,-5.5151,-5.5245,-5.5247,-5.5248,-5.5114,-5.5108,-5.5102,-5.5096,-5.5198,-5.5207,-5.5216,0,0,0,0,0,0,0,0,0,0,0,0,0,-5.4965,-5.4856,-5.5148,-5.5095,-5.5091,-5.5245,-5.5247,-5.5249,-5.5115,-5.5108,-5.51,-5.5094,-5.5196,-5.5206,-5.5217,-5.5428,0,0,-5.525,-5.5255,0,0,0,0,0,0,0,0,-5.4959,-5.4976,-5.5102,-5.5099,-5.5095,-5.516,-5.5178,-5.5309,-5.5117,-5.5106,-5.5098,-5.509,-5.5193,-5.5204,-5.5238,-5.5433,-5.5437,-5.5251,-5.5257,-5.5262,-5.5265,0,0,0,0,0,0,0,-5.4951,-5.4971,-5.5187,-5.5104,-5.51,-5.5067,-5.5076,-5.5202,-5.5189,-5.5106,-5.5097,-5.511,-5.519,-5.5228,-5.5239,-5.5439,-5.525,-5.526,-5.5267,-5.5271,-5.5812,-5.582,0,0,0,0,0,0,-5.4949,-5.4965,-5.5184,-5.519,-5.5007,-5.5078,-5.5088,-5.5146,-5.5187,-5.5186,-5.5116,-5.5103,-5.5213,-5.5227,-5.5242,-5.5492,-5.5262,-5.5272,-5.5278,-5.5805,-5.5814,-5.5823,0,0,0,0,0,0,-5.4943,-5.4969,-5.518,-5.5075,-5.5099,-5.5091,-5.5158,-5.5152,-5.5189,-5.5194,-5.5192,-5.5157,-5.5208,-5.5227,-5.5383,-5.5494,-5.5277,-5.5287,-5.5795,-5.5807,-5.5818,-5.5994,0,0,0,0,0,0,-5.4935,-5.4968,-5.5048,-5.5078,-5.5105,-5.5319,-5.5164,-5.5159,-5.5208,-5.5193,-5.5232,-5.5232,-5.5203,-5.5367,-5.5394,-5.5505,-5.5295,-5.5785,-5.5801,-5.5815,-5.5979,-5.6011,-5.6038,0,0,0,0,0,-5.4924,-5.5094,-5.5053,-5.508,-5.5205,-5.5325,-5.5341,-5.5304,-5.5218,-5.5298,-5.5301,-5.5231,-5.5478,-5.5384,-5.5413,-5.5529,-5.5778,-5.5796,-5.5813,-5.5965,-5.6004,-5.6037,0,0,0,0,0,0,-5.5078,-5.5097,-5.5051,-5.5236,-5.528,-5.5302,-5.5402,-5.5347,-5.5417,-5.54,-5.5351,-5.5362,-5.5528,-5.5544,-5.544,-5.5736,-5.5614,-5.5638,-5.5719,-5.5757,-5.5786,-5.5778,-5.5304,0,0,0,0,0,-5.5134,-5.5229,-5.524,-5.5402,-5.5426,-5.5411,-5.5462,-5.543,-5.5474,-5.5492,-5.5506,-5.5553,-5.564,-5.5699,-5.578,-5.598,-5.5987,-5.6074,-5.6104,-5.6129,-5.615,-5.6257,-5.6296,-5.5881,-5.5881,-5.588,0,0,-5.5249,-5.5271,-5.5334,-5.5434,-5.5464,-5.5564,-5.5428,-5.554,-5.5614,-5.5509,-5.5657,-5.567,-5.5718,-5.5896,-5.5976,-5.5915,-5.6266,-5.6151,-5.6171,-5.6179,-5.6279,-5.6318,-5.6353,-5.5893,-5.5891,-5.5889,0,0,-5.551,-5.5537,-5.5674,-5.5707,-5.5754,-5.5743,-5.5776,-5.5807,-5.5811,-5.5958,-5.5882,-5.597,-5.6122,-5.616,-5.6199,-5.6475,-5.6413,-5.6503,-5.6659,-5.6763,-5.6796,-5.6825,-5.6923,-5.6959,-5.6524,-5.6525,-5.6525,0,-5.5648,-5.5795,-5.5752,-5.5869,-5.5915,-5.5824,-5.5963,-5.5998,-5.607,-5.6104,-5.6035,-5.6224,-5.625,-5.6436,-5.6503,-5.6538,-5.6575,-5.6498,-5.6795,-5.6823,-5.6849,-5.6942,-5.698,-5.6535,-5.6534,-5.6533,-5.6532,0,-5.5962,-5.6065,-5.6171,-5.6242,-5.6299,-5.6427,-5.6404,-5.6468,-5.6431,-5.6427,-5.6579,-5.6607,-5.6692,-5.6734,-5.6699,-5.6916,-5.6876,-5.6802,-5.6678,-5.69,-5.6987,-5.7022,-5.6551,-5.6547,-5.6544,-5.6541,0,0,-5.6322,-5.6367,-5.6407,-5.6438,-5.6484,-5.6563,-5.6687,-5.6769,-5.6825,-5.6878,-5.6981,-5.7112,-5.7044,-5.7088,-5.7057,-5.7149,-5.7366,-5.7063,-5.7064,-5.7118,-5.7606,-5.7661,-5.7703,-5.7325,-5.7332,-5.7337,-5.7602,0,-5.6583,-5.6796,-5.676,-5.6967,-5.7062,-5.6978,-5.7086,-5.7126,-5.7126,-5.7207,-5.7207,-5.7301,-5.7203,-5.723,-5.7317,-5.7321,-5.7463,-5.7302,-5.7421,-5.7425,-5.7411,-5.7749,-5.7807,-5.8056,-5.7635,-5.7641,-5.7645,0,-5.6915,-5.6979,-5.7195,-5.7226,-5.7264,-5.7362,-5.7435,-5.7513,-5.7558,-5.7551,-5.7601,-5.7553,-5.7678,-5.7552,-5.7723,-5.7614,-5.7661,-5.7671,-5.7679,-5.7688,-5.7548,-5.7767,-5.8134,-5.8172,-5.7698,-5.7694,-5.769,0,-5.7156,-5.7297,-5.7444,-5.7473,-5.7513,-5.7583,-5.7603,-5.764,-5.7692,-5.7756,-5.7789,-5.7867,-5.791,-5.7972,-5.7947,-5.7858,-5.8123,-5.7996,-5.8122,-5.8123,-5.8181,-5.8177,-5.8561,-5.8213,-5.8212,-5.8211,-5.821,0,-5.745,-5.7586,-5.7552,-5.7643,-5.7792,-5.7751,-5.79,-5.791,-5.7944,-5.8035,-5.7968,-5.8055,-5.8017,-5.8102,-5.8083,-5.8228,-5.8248,-5.8246,-5.824,-5.8252,-5.8253,-5.8282,-5.8264,-5.8221,-5.8219,-5.8217,-5.8215,0,-5.7744,-5.7727,-5.7882,-5.7907,-5.7916,-5.8025,-5.8046,-5.8132,-5.8126,-5.8243,-5.8268,-5.8261,-5.8358,-5.8339,-5.8446,-5.8433,-5.8614,-5.8586,-5.8599,-5.8592,-5.8719,-5.8707,-5.9134,-5.9188,-5.8806,-5.8809,-5.8812,0,-5.7933,-5.8035,-5.807,-5.8126,-5.8151,-5.8242,-5.8294,-5.8258,-5.8315,-5.8373,-5.8452,-5.8543,-5.8613,-5.8772,-5.8777,-5.8858,-5.8832,-5.8976,-5.8844,-5.8853,-5.8834,-5.8828,-5.8838,-5.9002,-5.9006,-5.901,-5.9013,0,-5.8269,-5.8255,-5.8333,-5.8408,-5.8472,-5.853,-5.8581,-5.8631,-5.8599,-5.8667,-5.8765,-5.882,-5.8929,-5.902,-5.9096,-5.9117,-5.9061,-5.9055,-5.9088,-5.9101,-5.9104,-5.9104,-5.867,-5.9045,-5.9042,-5.9039,-5.9037,-5.9036,-5.8515,-5.8602,-5.864,-5.8729,-5.8763,-5.8813,-5.8894,-5.8899,-5.8979,-5.9064,-5.9038,-5.915,-5.9192,-5.9288,-5.9318,-5.9405,-5.9351,-5.94,-5.9412,-5.9424,-5.944,-5.9091,-5.9419,-5.9418,-5.9417,-5.9416,-5.9415,0,-5.8848,-5.8868,-5.895,-5.9023,-5.9094,-5.9033,-5.9087,-5.915,-5.9248,-5.9292,-5.9362,-5.9475,-5.9563,-5.9575,-5.9658,-5.9726,-5.9702,-5.9749,-5.9743,-5.9749,-5.9483,-5.9445,-5.9767,-5.9767,-5.9767,-5.9767,-5.9766,-5.9766,-5.9029,-5.9172,-5.9163,-5.9323,-5.9342,-5.945,-5.9486,-5.9532,-5.9566,-5.9694,-5.9767,-5.9773,-5.9804,-5.989,-5.9968,-5.9969,-6.0003,-6.006,-6.0052,-5.9803,-5.9768,-5.9734,-5.9699,-6.0068,-6.0069,-6.031,-6.0313,-6.0314]},{"header":{"parameterUnit":"m.s-1","parameterCategory":1,"la1":30.2991,"la2":30.254,"lo1":-89.0895,"lo2":-89.0444,"dy":0.0017,"dx":0.0017,"nx":28,"ny":28,"refTime":"2023-09-28T03:00:00:Z","depth":0,"parameterNumber":3,"parameterNumberName":"V-component_of_WINDS"},"data":[0,0,0,0,0,0,0,0,0,0,0,0,0,0,0,0,0,0,0,0,0,0,0,0,0,0,0,0,0,0,0,0,0,0,0,0,0,0,0,0,0,0,0,0,0,0,0,0,0,0,0,0,0,0,0,0,0,0,-1.6554,-1.6554,0,-1.6577,-1.6578,-1.6578,-1.6611,-1.6611,-1.6612,-1.6612,-1.6635,-1.6635,-1.6635,0,0,0,0,0,0,0,0,0,0,0,0,0,-1.6533,-1.6533,-1.6554,-1.6554,-1.6554,-1.6577,-1.6578,-1.6578,-1.6611,-1.6611,-1.6612,-1.6613,-1.6635,-1.6635,-1.6635,0,0,0,0,0,0,0,0,0,0,0,0,0,-1.6548,-1.6533,-1.6554,-1.6573,-1.6575,-1.6577,-1.6578,-1.6578,-1.6611,-1.6611,-1.6612,-1.6613,-1.6635,-1.6635,-1.6635,-1.6619,0,0,-1.6635,-1.6635,0,0,0,0,0,0,0,0,-1.6547,-1.6548,-1.657,-1.6572,-1.6574,-1.6592,-1.6579,-1.6592,-1.661,-1.6597,-1.6612,-1.6613,-1.662,-1.6621,-1.6624,-1.662,-1.6621,-1.6635,-1.6635,-1.6635,-1.6635,0,0,0,0,0,0,0,-1.6546,-1.6548,-1.6563,-1.657,-1.6573,-1.658,-1.6583,-1.6581,-1.6603,-1.6598,-1.6601,-1.6603,-1.6621,-1.6623,-1.6624,-1.6621,-1.6635,-1.6635,-1.6635,-1.6635,-1.6602,-1.6601,0,0,0,0,0,0,-1.6542,-1.6547,-1.6562,-1.6564,-1.6562,-1.658,-1.6583,-1.6585,-1.6603,-1.6607,-1.6603,-1.6605,-1.6623,-1.6624,-1.6625,-1.6605,-1.6635,-1.6635,-1.6635,-1.6603,-1.6602,-1.6601,0,0,0,0,0,0,-1.6542,-1.6543,-1.6561,-1.6556,-1.6559,-1.6579,-1.6582,-1.6585,-1.6588,-1.6607,-1.661,-1.6601,-1.6624,-1.6625,-1.662,-1.6607,-1.6635,-1.6635,-1.6604,-1.6603,-1.6602,-1.6567,0,0,0,0,0,0,-1.6541,-1.6543,-1.6538,-1.6555,-1.6559,-1.6556,-1.6581,-1.6585,-1.6588,-1.6591,-1.6606,-1.661,-1.6624,-1.6619,-1.662,-1.6607,-1.6635,-1.6606,-1.6604,-1.6602,-1.6569,-1.6564,-1.656,0,0,0,0,0,-1.654,-1.6527,-1.6537,-1.6539,-1.6553,-1.6555,-1.6557,-1.6575,-1.6587,-1.6581,-1.6593,-1.6609,-1.6609,-1.6618,-1.6619,-1.6607,-1.6606,-1.6604,-1.6602,-1.6571,-1.6565,-1.656,0,0,0,0,0,0,-1.6507,-1.653,-1.6542,-1.6534,-1.6543,-1.6561,-1.6554,-1.6569,-1.6573,-1.6576,-1.6597,-1.66,-1.6591,-1.6599,-1.6609,-1.6591,-1.661,-1.6608,-1.6586,-1.658,-1.6576,-1.6573,-1.6636,0,0,0,0,0,-1.6499,-1.65,-1.652,-1.6511,-1.6515,-1.6534,-1.6535,-1.6548,-1.6558,-1.6561,-1.6573,-1.658,-1.6581,-1.6582,-1.6584,-1.6571,-1.6573,-1.6563,-1.6558,-1.6555,-1.6552,-1.6543,-1.6538,-1.6594,-1.6594,-1.6594,0,0,-1.6482,-1.6495,-1.6494,-1.6505,-1.6513,-1.6512,-1.6536,-1.6535,-1.6534,-1.6561,-1.6556,-1.6564,-1.6574,-1.6564,-1.656,-1.657,-1.6537,-1.6552,-1.6549,-1.6548,-1.654,-1.6535,-1.653,-1.6593,-1.6593,-1.6593,0,0,-1.6451,-1.6461,-1.6454,-1.6462,-1.6474,-1.6486,-1.6484,-1.65,-1.6507,-1.6502,-1.6522,-1.6521,-1.6523,-1.6528,-1.6532,-1.65,-1.6514,-1.6501,-1.6477,-1.6468,-1.6463,-1.6459,-1.6446,-1.6441,-1.6498,-1.6498,-1.6498,0,-1.6428,-1.6428,-1.6449,-1.6445,-1.6448,-1.6473,-1.6465,-1.6471,-1.6483,-1.6484,-1.6495,-1.6497,-1.6506,-1.6496,-1.6488,-1.6491,-1.6488,-1.6498,-1.6463,-1.6459,-1.6455,-1.6443,-1.6438,-1.6496,-1.6497,-1.6497,-1.6497,0,-1.6398,-1.6398,-1.6391,-1.6401,-1.6404,-1.6398,-1.6416,-1.6416,-1.6429,-1.644,-1.6433,-1.6445,-1.6448,-1.6448,-1.646,-1.6439,-1.6444,-1.6459,-1.6478,-1.6448,-1.6436,-1.6431,-1.6494,-1.6494,-1.6495,-1.6495,0,0,-1.6346,-1.6368,-1.6364,-1.6368,-1.6383,-1.6382,-1.6377,-1.6381,-1.6379,-1.6387,-1.6381,-1.6382,-1.6395,-1.6399,-1.6412,-1.6404,-1.6375,-1.6419,-1.642,-1.6408,-1.635,-1.6337,-1.6331,-1.6386,-1.6385,-1.6384,-1.6348,0,-1.6315,-1.6308,-1.6326,-1.6313,-1.6311,-1.6335,-1.633,-1.6337,-1.6347,-1.6346,-1.6357,-1.6356,-1.6375,-1.6376,-1.637,-1.638,-1.6364,-1.6384,-1.6378,-1.6378,-1.6373,-1.6325,-1.6312,-1.6278,-1.6344,-1.6343,-1.6343,0,-1.6279,-1.6283,-1.6271,-1.6284,-1.6284,-1.6279,-1.6283,-1.6283,-1.6291,-1.6299,-1.6302,-1.6317,-1.6311,-1.6331,-1.6322,-1.6335,-1.6334,-1.6338,-1.6337,-1.6336,-1.6357,-1.632,-1.6267,-1.6261,-1.6336,-1.6337,-1.6337,0,-1.6238,-1.6242,-1.6234,-1.6237,-1.6253,-1.6249,-1.6255,-1.6264,-1.6265,-1.6269,-1.6269,-1.6272,-1.6273,-1.6274,-1.6289,-1.6302,-1.6276,-1.6298,-1.628,-1.628,-1.6272,-1.6272,-1.6216,-1.6276,-1.6276,-1.6276,-1.6276,0,-1.6201,-1.6191,-1.6216,-1.6211,-1.62,-1.622,-1.6209,-1.6218,-1.6225,-1.6221,-1.6242,-1.6237,-1.6258,-1.6256,-1.6267,-1.6256,-1.6257,-1.6262,-1.6264,-1.6258,-1.6257,-1.6256,-1.6258,-1.6275,-1.6275,-1.6275,-1.6276,0,-1.6154,-1.617,-1.6162,-1.6178,-1.6182,-1.6173,-1.6185,-1.618,-1.6192,-1.6186,-1.6185,-1.6202,-1.62,-1.6215,-1.6216,-1.6224,-1.6206,-1.6214,-1.6203,-1.6204,-1.6185,-1.6185,-1.6124,-1.6116,-1.6183,-1.6183,-1.6182,0,-1.6127,-1.612,-1.6135,-1.6134,-1.6139,-1.6137,-1.6138,-1.6157,-1.6156,-1.6164,-1.6158,-1.6157,-1.6157,-1.6152,-1.6164,-1.6164,-1.617,-1.6149,-1.617,-1.6164,-1.6167,-1.6166,-1.6164,-1.6144,-1.6143,-1.6142,-1.6142,0,-1.6078,-1.6086,-1.6087,-1.6089,-1.6089,-1.6092,-1.6097,-1.6094,-1.6115,-1.6113,-1.6111,-1.6111,-1.6111,-1.6109,-1.6111,-1.6117,-1.6131,-1.6135,-1.613,-1.6123,-1.6115,-1.6116,-1.6188,-1.6136,-1.6136,-1.6137,-1.6137,-1.6137,-1.6039,-1.6033,-1.6041,-1.604,-1.6046,-1.6049,-1.6044,-1.6054,-1.6053,-1.6054,-1.6066,-1.6061,-1.6068,-1.6072,-1.6076,-1.6071,-1.6081,-1.6075,-1.6073,-1.607,-1.6065,-1.6118,-1.6072,-1.6072,-1.6072,-1.6072,-1.6072,0,-1.5988,-1.5994,-1.5994,-1.5998,-1.5997,-1.6013,-1.6018,-1.6015,-1.601,-1.6016,-1.6015,-1.6012,-1.601,-1.6021,-1.602,-1.6014,-1.602,-1.6013,-1.6012,-1.6012,-1.6058,-1.6061,-1.6007,-1.6007,-1.6007,-1.6007,-1.6007,-1.6007,-1.5961,-1.5951,-1.596,-1.5951,-1.5958,-1.5953,-1.5954,-1.5956,-1.596,-1.5955,-1.5954,-1.5961,-1.5968,-1.5968,-1.5966,-1.5969,-1.5967,-1.5956,-1.5961,-1.6003,-1.6009,-1.6015,-1.6018,-1.5956,-1.5956,-1.5915,-1.5915,-1.5914]}]]